Location: Newport
(44.6370°N, 124.0520°W)
Time: 22:20:58
(UTC-07:00)

Tiangong 1 - Pass Details

Date: 09 October 2017
Orbit: 293 x 320 km, 42.8° (Epoch: 19 October)

Event Time Altitude Azimuth Distance (km) Brightness Sun altitude
Rises 19:10:19 0° 251° (WSW) 2,042 6.6 -5.9°
Reaches altitude 10° 19:12:20 10° 245° (WSW) 1,208 4.9 -6.3°
Maximum altitude 19:14:57 46° 170° (S) 431 1.3 -6.8°
Drops below altitude 10° 19:17:32 10° 95° (E) 1,194 2.9 -7.2°
Enters shadow 19:17:32 10° 95° (E) 1,199 2.9 -7.2°
